When you browse on this site, cookies collect data to enhance your experience and personalize the content and advertising you see.
Visit our Privacy Policy to learn more. By continuing to use the site, you agree to this use of cookies and data.
EN

Hourly Weather Siza

Today, 14 August, Friday

Time Temperature Precipitation Wind Pressure Humidity
00:00 +11°C° 0.2 mm 6 mps 743 mmHg 92%
01:00 +10°C° 0.5 mm 6 mps 742 mmHg 92%
02:00 +10°C° 0.5 mm 6 mps 742 mmHg 92%
03:00 +10°C° 0.5 mm 6 mps 742 mmHg 92%
04:00 +10°C° 0.9 mm 6 mps 742 mmHg 92%
05:00 +10°C° 0.9 mm 6 mps 742 mmHg 92%
06:00 +10°C° 0.9 mm 6 mps 742 mmHg 92%
07:00 +10°C° 0.7 mm 6 mps 742 mmHg 93%
08:00 +10°C° 0.7 mm 6 mps 742 mmHg 93%
09:00 +10°C° 0.7 mm 6 mps 742 mmHg 93%
10:00 +10°C° 0.7 mm 6 mps 742 mmHg 92%
11:00 +11°C° 0.7 mm 6 mps 742 mmHg 92%
12:00 +11°C° 0.7 mm 6 mps 742 mmHg 91%
13:00 +11°C° 0.7 mm 6 mps 742 mmHg 90%
14:00 +13°C° 0.7 mm 6 mps 742 mmHg 90%
15:00 +13°C° 0.7 mm 6 mps 742 mmHg 90%
16:00 +13°C° 0.5 mm 5 mps 741 mmHg 90%
17:00 +13°C° 0.5 mm 5 mps 741 mmHg 90%
18:00 +14°C° 0.5 mm 5 mps 741 mmHg 90%
19:00 +13°C° 0.4 mm 5 mps 741 mmHg 90%
20:00 +13°C° 0.4 mm 5 mps 741 mmHg 90%
21:00 +13°C° 0.4 mm 6 mps 741 mmHg 90%
22:00 +11°C° 0.2 mm 6 mps 741 mmHg 91%
23:00 +11°C° 0.2 mm 6 mps 741 mmHg 91%

Tomorrow, 15 August, Saturday

Time Temperature Precipitation Wind Pressure Humidity
00:00 +10°C° 0.2 mm 6 mps 741 mmHg 91%
01:00 +11°C° 1.2 mm 6 mps 741 mmHg 93%
02:00 +11°C° 1.2 mm 6 mps 741 mmHg 94%
03:00 +11°C° 1.2 mm 6 mps 741 mmHg 96%
04:00 +11°C° 0.7 mm 6 mps 741 mmHg 96%
05:00 +13°C° 0.7 mm 6 mps 741 mmHg 96%
06:00 +13°C° 0.7 mm 5 mps 741 mmHg 96%
07:00 +13°C° 0 mm 5 mps 741 mmHg 94%
08:00 +13°C° 0 mm 5 mps 741 mmHg 92%
09:00 +13°C° 0 mm 5 mps 742 mmHg 91%
10:00 +13°C° 0 mm 6 mps 742 mmHg 86%
11:00 +14°C° 0 mm 6 mps 742 mmHg 81%
12:00 +15°C° 0 mm 6 mps 742 mmHg 77%
13:00 +14°C° 0.1 mm 7 mps 742 mmHg 79%
14:00 +14°C° 0.1 mm 7 mps 742 mmHg 81%
15:00 +12°C° 0.1 mm 7 mps 742 mmHg 83%
16:00 +11°C° 0.1 mm 7 mps 742 mmHg 85%
17:00 +11°C° 0.1 mm 7 mps 742 mmHg 87%
18:00 +10°C° 0.1 mm 7 mps 742 mmHg 89%
19:00 +10°C° 0 mm 6 mps 742 mmHg 90%
20:00 +10°C° 0 mm 6 mps 742 mmHg 90%
21:00 +10°C° 0 mm 6 mps 742 mmHg 91%
22:00 +10°C° 0 mm 6 mps 742 mmHg 91%
23:00 +10°C° 0 mm 6 mps 742 mmHg 90%

Day after tomorrow, 16 August, Sunday

Time Temperature Precipitation Wind Pressure Humidity
00:00 +10°C° 0 mm 5 mps 742 mmHg 90%
01:00 +10°C° 0 mm 5 mps 742 mmHg 90%
02:00 +10°C° 0 mm 5 mps 742 mmHg 90%
03:00 +10°C° 0 mm 5 mps 742 mmHg 90%
04:00 +10°C° 0 mm 5 mps 742 mmHg 90%
05:00 +10°C° 0 mm 5 mps 742 mmHg 91%
06:00 +10°C° 0 mm 5 mps 742 mmHg 91%
07:00 +10°C° 0 mm 5 mps 742 mmHg 90%
08:00 +11°C° 0 mm 4 mps 742 mmHg 89%
09:00 +11°C° 0 mm 4 mps 742 mmHg 88%
10:00 +12°C° 0 mm 4 mps 742 mmHg 86%
11:00 +12°C° 0 mm 4 mps 743 mmHg 84%
12:00 +13°C° 0 mm 4 mps 743 mmHg 82%
13:00 +13°C° 0 mm 4 mps 742 mmHg 81%
14:00 +14°C° 0 mm 4 mps 742 mmHg 79%
15:00 +14°C° 0 mm 4 mps 742 mmHg 78%
16:00 +14°C° 0 mm 4 mps 742 mmHg 79%
17:00 +14°C° 0 mm 3 mps 742 mmHg 81%
18:00 +14°C° 0 mm 3 mps 742 mmHg 82%
19:00 +13°C° 0 mm 3 mps 742 mmHg 86%
20:00 +12°C° 0 mm 3 mps 742 mmHg 89%
21:00 +10°C° 0 mm 3 mps 742 mmHg 92%
22:00 +10°C° 0 mm 3 mps 742 mmHg 92%
23:00 +10°C° 0 mm 2 mps 742 mmHg 91%

17 August, Monday

Time Temperature Precipitation Wind Pressure Humidity
00:00 +10°C° 0 mm 2 mps 742 mmHg 91%
01:00 +10°C° 0 mm 2 mps 741 mmHg 91%
02:00 +9°C° 0 mm 2 mps 741 mmHg 91%
03:00 +9°C° 0 mm 2 mps 741 mmHg 90%
04:00 +10°C° 0 mm 2 mps 741 mmHg 88%
05:00 +12°C° 0 mm 2 mps 740 mmHg 86%
06:00 +12°C° 0 mm 2 mps 740 mmHg 84%
07:00 +13°C° 0 mm 2 mps 740 mmHg 84%
08:00 +13°C° 0 mm 2 mps 739 mmHg 83%
09:00 +13°C° 0 mm 2 mps 739 mmHg 82%
10:00 +13°C° 0.3 mm 2 mps 739 mmHg 86%
11:00 +14°C° 0.3 mm 2 mps 739 mmHg 90%
12:00 +14°C° 0.3 mm 2 mps 739 mmHg 93%
13:00 +14°C° 0.3 mm 3 mps 739 mmHg 91%
14:00 +15°C° 0.3 mm 4 mps 739 mmHg 88%
15:00 +15°C° 0.3 mm 5 mps 739 mmHg 86%
16:00 +15°C° 0.2 mm 5 mps 739 mmHg 86%
17:00 +14°C° 0.2 mm 6 mps 739 mmHg 87%
18:00 +13°C° 0.2 mm 6 mps 740 mmHg 88%
19:00 +11°C° 0 mm 6 mps 740 mmHg 88%
20:00 +10°C° 0 mm 5 mps 740 mmHg 88%
21:00 +9°C° 0 mm 5 mps 740 mmHg 87%
22:00 +9°C° 0 mm 5 mps 740 mmHg 87%
23:00 +8°C° 0 mm 5 mps 740 mmHg 87%

18 August, Tuesday

Time Temperature Precipitation Wind Pressure Humidity
00:00 +7°C° 0 mm 5 mps 741 mmHg 87%
01:00 +7°C° 0 mm 5 mps 741 mmHg 87%
02:00 +7°C° 0 mm 5 mps 741 mmHg 87%
03:00 +6°C° 0 mm 5 mps 741 mmHg 86%
04:00 +6°C° 0 mm 5 mps 741 mmHg 86%
05:00 +7°C° 0 mm 5 mps 742 mmHg 85%
06:00 +7°C° 0 mm 6 mps 742 mmHg 84%
07:00 +9°C° 0 mm 6 mps 742 mmHg 78%
08:00 +11°C° 0 mm 7 mps 743 mmHg 72%
09:00 +12°C° 0 mm 7 mps 743 mmHg 66%
10:00 +14°C° 0 mm 7 mps 743 mmHg 64%
11:00 +15°C° 0 mm 7 mps 743 mmHg 61%
12:00 +16°C° 0 mm 7 mps 743 mmHg 59%
13:00 +16°C° 0 mm 7 mps 743 mmHg 58%
14:00 +16°C° 0 mm 7 mps 743 mmHg 58%
15:00 +16°C° 0 mm 6 mps 744 mmHg 57%
16:00 +16°C° 0 mm 5 mps 744 mmHg 63%
17:00 +15°C° 0 mm 4 mps 744 mmHg 68%
18:00 +14°C° 0 mm 4 mps 744 mmHg 73%
19:00 +13°C° 0 mm 3 mps 745 mmHg 76%
20:00 +11°C° 0 mm 3 mps 745 mmHg 79%
21:00 +10°C° 0 mm 3 mps 745 mmHg 82%
22:00 +9°C° 0 mm 3 mps 745 mmHg 82%
23:00 +9°C° 0 mm 3 mps 745 mmHg 83%

19 August, Wednesday

Time Temperature Precipitation Wind Pressure Humidity
00:00 +8°C° 0 mm 3 mps 745 mmHg 84%
01:00 +8°C° 0 mm 3 mps 746 mmHg 85%
02:00 +7°C° 0 mm 3 mps 746 mmHg 86%
03:00 +7°C° 0 mm 3 mps 746 mmHg 87%
04:00 +7°C° 0 mm 3 mps 746 mmHg 85%
05:00 +8°C° 0 mm 3 mps 746 mmHg 84%
06:00 +8°C° 0 mm 3 mps 746 mmHg 82%
07:00 +10°C° 0 mm 3 mps 746 mmHg 76%
08:00 +12°C° 0 mm 3 mps 746 mmHg 69%
09:00 +14°C° 0 mm 3 mps 746 mmHg 63%
10:00 +16°C° 0 mm 3 mps 746 mmHg 60%
11:00 +16°C° 0 mm 3 mps 746 mmHg 56%
12:00 +17°C° 0 mm 3 mps 746 mmHg 53%
13:00 +18°C° 0 mm 3 mps 746 mmHg 53%
14:00 +18°C° 0 mm 3 mps 746 mmHg 53%
15:00 +18°C° 0 mm 3 mps 746 mmHg 53%
16:00 +17°C° 0 mm 2 mps 746 mmHg 59%
17:00 +16°C° 0 mm 2 mps 746 mmHg 64%
18:00 +15°C° 0 mm 2 mps 746 mmHg 70%
19:00 +14°C° 0 mm 1 mps 746 mmHg 74%
20:00 +13°C° 0 mm 1 mps 746 mmHg 77%
21:00 +11°C° 0 mm 1 mps 746 mmHg 81%
22:00 +11°C° 0 mm 1 mps 746 mmHg 81%
23:00 +10°C° 0 mm 1 mps 747 mmHg 82%
Show more